Time,TemperatureF,DewpointF,PressureIn,WindDirection,WindDirectionDegrees,WindSpeedMPH,WindSpeedGustMPH,Humidity,HourlyPrecipIn,Conditions,Clouds,dailyrainin,SoftwareType,DateUTC
2013-02-01 00:03:00,34.0,-99.9,29.89,NW,323,15.0,25.0,-999,-99.99,,,-99.99,,2013-02-01 05:03:00,
2013-02-01 00:12:00,35.0,-99.9,29.89,NW,322,18.0,31.0,-999,-99.99,,,-99.99,,2013-02-01 05:12:00,
2013-02-01 00:22:00,35.0,-99.9,29.90,NW,322,21.0,36.0,-999,-99.99,,,-99.99,,2013-02-01 05:22:00,
2013-02-01 00:32:00,35.0,-99.9,29.90,NW,317,20.0,32.0,-999,-99.99,,,-99.99,,2013-02-01 05:32:00,
2013-02-01 00:42:00,35.0,-99.9,29.90,NW,321,17.0,30.0,-999,-99.99,,,-99.99,,2013-02-01 05:42:00,
2013-02-01 00:52:00,35.0,-99.9,29.90,NW,318,17.0,30.0,-999,-99.99,,,-99.99,,2013-02-01 05:52:00,
2013-02-01 01:02:00,35.0,-99.9,29.90,NW,319,21.0,31.0,-999,-99.99,,,-99.99,,2013-02-01 06:02:00,
2013-02-01 01:12:00,34.0,-99.9,29.90,NW,320,15.0,27.0,-999,-99.99,,,-99.99,,2013-02-01 06:12:00,
2013-02-01 01:22:00,34.0,-99.9,29.91,NW,312,21.0,30.0,-999,-99.99,,,-99.99,,2013-02-01 06:22:00,
2013-02-01 01:32:00,34.0,-99.9,29.91,NW,310,20.0,27.0,-999,-99.99,,,-99.99,,2013-02-01 06:32:00,
2013-02-01 01:42:00,34.0,-99.9,29.92,NW,308,20.0,27.0,-999,-99.99,,,-99.99,,2013-02-01 06:42:00,
2013-02-01 01:52:00,34.0,-99.9,29.91,WNW,300,18.0,24.0,-999,-99.99,,,-99.99,,2013-02-01 06:52:00,
2013-02-01 02:02:00,33.0,-99.9,29.91,WNW,301,15.0,19.0,-999,-99.99,,,-99.99,,2013-02-01 07:02:00,
2013-02-01 02:12:00,33.0,-99.9,29.91,WNW,301,16.0,23.0,-999,-99.99,,,-99.99,,2013-02-01 07:12:00,
2013-02-01 02:22:00,33.0,-99.9,29.91,WNW,298,14.0,17.0,-999,-99.99,,,-99.99,,2013-02-01 07:22:00,
2013-02-01 02:32:00,33.0,-99.9,29.91,WNW,302,11.0,15.0,-999,-99.99,,,-99.99,,2013-02-01 07:32:00,
2013-02-01 02:42:00,33.0,-99.9,29.90,WNW,290,11.0,17.0,-999,-99.99,,,-99.99,,2013-02-01 07:42:00,
2013-02-01 02:52:00,33.0,-99.9,29.90,WNW,294,12.0,14.0,-999,-99.99,,,-99.99,,2013-02-01 07:52:00,
2013-02-01 03:01:00,33.0,-99.9,29.91,WNW,293,12.0,14.0,-999,-99.99,,,-99.99,,2013-02-01 08:01:00,
2013-02-01 03:11:00,34.0,-99.9,29.90,WNW,287,10.0,12.0,-999,-99.99,,,-99.99,,2013-02-01 08:11:00,
2013-02-01 03:22:00,34.0,-99.9,29.90,West,275,12.0,14.0,-999,-99.99,,,-99.99,,2013-02-01 08:22:00,
2013-02-01 03:32:00,34.0,-99.9,29.90,West,274,12.0,13.0,-999,-99.99,,,-99.99,,2013-02-01 08:32:00,
2013-02-01 03:42:00,34.0,-99.9,29.90,West,270,11.0,14.0,-999,-99.99,,,-99.99,,2013-02-01 08:42:00,
2013-02-01 03:52:00,34.0,-99.9,29.89,West,275,10.0,12.0,-999,-99.99,,,-99.99,,2013-02-01 08:52:00,
2013-02-01 04:02:00,34.0,-99.9,29.89,West,261,9.0,10.0,-999,-99.99,,,-99.99,,2013-02-01 09:02:00,
2013-02-01 04:11:00,33.0,-99.9,29.88,WSW,242,8.0,10.0,-999,-99.99,,,-99.99,,2013-02-01 09:11:00,
2013-02-01 04:22:00,33.0,-99.9,29.88,SW,234,8.0,11.0,-999,-99.99,,,-99.99,,2013-02-01 09:22:00,
2013-02-01 04:32:00,33.0,-99.9,29.88,SW,235,8.0,11.0,-999,-99.99,,,-99.99,,2013-02-01 09:32:00,
2013-02-01 04:42:00,33.0,-99.9,29.87,SW,223,6.0,8.0,-999,-99.99,,,-99.99,,2013-02-01 09:42:00,
2013-02-01 04:52:00,33.0,-99.9,29.86,SW,215,6.0,8.0,-999,-99.99,,,-99.99,,2013-02-01 09:52:00,
2013-02-01 05:01:00,33.0,-99.9,29.86,SSW,195,5.0,8.0,-999,-99.99,,,-99.99,,2013-02-01 10:01:00,
2013-02-01 05:11:00,33.0,-99.9,29.86,South,180,4.0,6.0,-999,-99.99,,,-99.99,,2013-02-01 10:11:00,
2013-02-01 05:21:00,32.0,-99.9,29.85,SSE,157,4.0,5.0,-999,-99.99,,,-99.99,,2013-02-01 10:21:00,
2013-02-01 05:32:00,32.0,-99.9,29.85,SE,145,3.0,4.0,-999,-99.99,,,-99.99,,2013-02-01 10:32:00,
2013-02-01 05:43:00,32.0,-99.9,29.84,SE,141,3.0,4.0,-999,-99.99,,,-99.99,,2013-02-01 10:43:00,
2013-02-01 05:53:00,32.0,-99.9,29.84,SE,138,2.0,2.0,-999,-99.99,,,-99.99,,2013-02-01 10:53:00,
2013-02-01 06:02:00,32.0,-99.9,29.84,ESE,109,2.0,3.0,-999,-99.99,,,-99.99,,2013-02-01 11:02:00,
2013-02-01 06:11:00,33.0,-99.9,29.84,SE,132,1.0,3.0,-999,-99.99,,,-99.99,,2013-02-01 11:11:00,
2013-02-01 06:22:00,33.0,-99.9,29.84,SSE,156,2.0,2.0,-999,-99.99,,,-99.99,,2013-02-01 11:22:00,
2013-02-01 06:32:00,34.0,-99.9,29.83,SSE,159,4.0,5.0,-999,-99.99,,,-99.99,,2013-02-01 11:32:00,
2013-02-01 06:42:00,34.0,-99.9,29.82,SE,145,3.0,3.0,-999,-99.99,,,-99.99,,2013-02-01 11:42:00,
2013-02-01 06:53:00,35.0,-99.9,29.83,SW,234,7.0,10.0,-999,-99.99,,,-99.99,,2013-02-01 11:53:00,
2013-02-01 07:03:00,35.0,-99.9,29.83,West,268,12.0,13.0,-999,-99.99,,,-99.99,,2013-02-01 12:03:00,
2013-02-01 07:12:00,34.0,-99.9,29.83,West,262,11.0,15.0,-999,-99.99,,,-99.99,,2013-02-01 12:12:00,
2013-02-01 07:23:00,34.0,-99.9,29.83,WSW,248,13.0,16.0,-999,-99.99,,,-99.99,,2013-02-01 12:23:00,
2013-02-01 07:32:00,33.0,-99.9,29.84,West,259,11.0,13.0,-999,-99.99,,,-99.99,,2013-02-01 12:32:00,
2013-02-01 07:42:00,32.0,-99.9,29.84,WNW,292,7.0,10.0,-999,-99.99,,,-99.99,,2013-02-01 12:42:00,
2013-02-01 07:52:00,-999.0,-99.9,29.84,WNW,284,10.0,11.0,-999,-99.99,,,-99.99,,2013-02-01 12:52:00,
2013-02-01 08:02:00,31.0,-99.9,29.84,WNW,296,10.0,12.0,-999,-99.99,,,-99.99,,2013-02-01 13:02:00,
2013-02-01 08:12:00,-999.0,-99.9,29.84,WNW,293,7.0,9.0,-999,-99.99,,,-99.99,,2013-02-01 13:12:00,
2013-02-01 08:22:00,31.0,-99.9,29.84,NW,304,8.0,10.0,-999,-99.99,,,-99.99,,2013-02-01 13:22:00,
2013-02-01 08:33:00,-999.0,-99.9,29.85,NW,314,7.0,9.0,-999,-99.99,,,-99.99,,2013-02-01 13:33:00,
2013-02-01 08:43:00,-999.0,-99.9,29.85,NNW,328,10.0,13.0,-999,-99.99,,,-99.99,,2013-02-01 13:43:00,
2013-02-01 08:53:00,-999.0,-99.9,29.84,NW,322,11.0,14.0,-999,-99.99,,,-99.99,,2013-02-01 13:53:00,
2013-02-01 09:04:00,31.0,-99.9,29.84,NNW,335,11.0,15.0,-999,-99.99,,,-99.99,,2013-02-01 14:04:00,
2013-02-01 09:12:00,-999.0,-99.9,29.85,NNW,331,14.0,19.0,-999,-99.99,,,-99.99,,2013-02-01 14:12:00,
2013-02-01 09:22:00,-999.0,-99.9,29.85,NNW,330,17.0,20.0,-999,-99.99,,,-99.99,,2013-02-01 14:22:00,
2013-02-01 09:33:00,31.0,-99.9,29.85,NNW,331,15.0,23.0,-999,-99.99,,,-99.99,,2013-02-01 14:33:00,
2013-02-01 09:42:00,-999.0,-99.9,29.86,North,357,24.0,32.0,-999,-99.99,,,-99.99,,2013-02-01 14:42:00,
2013-02-01 09:53:00,29.0,-99.9,29.87,North,349,20.0,31.0,-999,-99.99,,,-99.99,,2013-02-01 14:53:00,
2013-02-01 10:03:00,-999.0,-99.9,29.88,North,351,20.0,27.0,-999,-99.99,,,-99.99,,2013-02-01 15:03:00,
2013-02-01 10:12:00,-999.0,-99.9,29.89,North,354,24.0,37.0,-999,-99.99,,,-99.99,,2013-02-01 15:12:00,
2013-02-01 10:22:00,-999.0,-99.9,29.90,North,351,25.0,36.0,-999,-99.99,,,-99.99,,2013-02-01 15:22:00,
2013-02-01 10:33:00,27.0,-99.9,29.91,North,351,23.0,36.0,-999,-99.99,,,-99.99,,2013-02-01 15:33:00,
2013-02-01 10:42:00,-999.0,-99.9,29.92,NNW,344,24.0,34.0,-999,-99.99,,,-99.99,,2013-02-01 15:42:00,
2013-02-01 10:52:00,-999.0,-99.9,29.93,NNW,343,20.0,31.0,-999,-99.99,,,-99.99,,2013-02-01 15:52:00,
2013-02-01 11:03:00,28.0,-99.9,29.93,NNW,343,21.0,32.0,-999,-99.99,,,-99.99,,2013-02-01 16:03:00,
2013-02-01 11:12:00,-999.0,-99.9,29.94,NNW,331,17.0,32.0,-999,-99.99,,,-99.99,,2013-02-01 16:12:00,
2013-02-01 11:22:00,27.0,-99.9,29.94,NNW,327,19.0,36.0,-999,-99.99,,,-99.99,,2013-02-01 16:22:00,
2013-02-01 11:33:00,-999.0,-99.9,29.95,NNW,329,31.0,39.0,-999,-99.99,,,-99.99,,2013-02-01 16:33:00,
2013-02-01 11:43:00,-999.0,-99.9,29.95,NW,325,28.0,36.0,-999,-99.99,,,-99.99,,2013-02-01 16:43:00,
2013-02-01 11:53:00,-999.0,-99.9,29.95,NW,323,32.0,38.0,-999,-99.99,,,-99.99,,2013-02-01 16:53:00,
2013-02-01 12:03:00,27.0,-99.9,29.95,NW,323,32.0,39.0,-999,-99.99,,,-99.99,,2013-02-01 17:03:00,
2013-02-01 12:12:00,-999.0,-99.9,29.96,NW,326,29.0,36.0,-999,-99.99,,,-99.99,,2013-02-01 17:12:00,
2013-02-01 12:22:00,-999.0,-99.9,29.96,NNW,328,28.0,35.0,-999,-99.99,,,-99.99,,2013-02-01 17:22:00,
2013-02-01 12:32:00,29.0,-99.9,29.96,NNW,329,31.0,39.0,-999,-99.99,,,-99.99,,2013-02-01 17:32:00,
2013-02-01 12:42:00,-999.0,-99.9,29.98,NNW,329,31.0,40.0,-999,-99.99,,,-99.99,,2013-02-01 17:42:00,
2013-02-01 12:53:00,29.0,-99.9,29.98,NNW,328,27.0,35.0,-999,-99.99,,,-99.99,,2013-02-01 17:53:00,
2013-02-01 13:03:00,-999.0,-99.9,29.98,NW,320,33.0,44.0,-999,-99.99,,,-99.99,,2013-02-01 18:03:00,
2013-02-01 13:13:00,-999.0,-99.9,29.99,NW,320,34.0,41.0,-999,-99.99,,,-99.99,,2013-02-01 18:13:00,
2013-02-01 13:23:00,-999.0,-99.9,30.00,NW,321,31.0,39.0,-999,-99.99,,,-99.99,,2013-02-01 18:23:00,
2013-02-01 13:33:00,29.0,-99.9,30.00,NW,320,26.0,36.0,-999,-99.99,,,-99.99,,2013-02-01 18:33:00,
2013-02-01 13:42:00,-999.0,-99.9,30.00,NW,321,33.0,43.0,-999,-99.99,,,-99.99,,2013-02-01 18:42:00,
2013-02-01 13:53:00,-999.0,-99.9,30.01,NW,322,30.0,36.0,-999,-99.99,,,-99.99,,2013-02-01 18:53:00,
2013-02-01 14:03:00,-999.0,-99.9,30.01,NW,315,30.0,40.0,-999,-99.99,,,-99.99,,2013-02-01 19:03:00,
2013-02-01 14:12:00,-999.0,-99.9,30.01,NW,323,32.0,38.0,-999,-99.99,,,-99.99,,2013-02-01 19:12:00,
2013-02-01 14:22:00,-999.0,-99.9,30.02,NW,314,30.0,35.0,-999,-99.99,,,-99.99,,2013-02-01 19:22:00,
2013-02-01 14:33:00,29.0,-99.9,30.03,NW,314,26.0,37.0,-999,-99.99,,,-99.99,,2013-02-01 19:33:00,
2013-02-01 14:42:00,-999.0,-99.9,30.03,NW,317,23.0,34.0,-999,-99.99,,,-99.99,,2013-02-01 19:42:00,
2013-02-01 14:52:00,30.0,-99.9,30.03,NW,319,23.0,37.0,-999,-99.99,,,-99.99,,2013-02-01 19:52:00,
2013-02-01 15:02:00,-999.0,-99.9,30.03,NW,317,33.0,42.0,-999,-99.99,,,-99.99,,2013-02-01 20:02:00,
2013-02-01 15:12:00,-999.0,-99.9,30.05,NW,319,27.0,34.0,-999,-99.99,,,-99.99,,2013-02-01 20:12:00,
2013-02-01 15:22:00,-999.0,-99.9,30.05,NW,316,30.0,37.0,-999,-99.99,,,-99.99,,2013-02-01 20:22:00,
2013-02-01 15:32:00,29.0,-99.9,30.06,NW,324,29.0,36.0,-999,-99.99,,,-99.99,,2013-02-01 20:32:00,
2013-02-01 15:42:00,-999.0,-99.9,30.06,NW,322,29.0,39.0,-999,-99.99,,,-99.99,,2013-02-01 20:42:00,
2013-02-01 15:52:00,-999.0,-99.9,30.07,NW,320,30.0,37.0,-999,-99.99,,,-99.99,,2013-02-01 20:52:00,
2013-02-01 16:02:00,29.0,-99.9,30.07,NW,319,31.0,40.0,-999,-99.99,,,-99.99,,2013-02-01 21:02:00,
2013-02-01 16:12:00,-999.0,-99.9,30.08,NW,317,29.0,40.0,-999,-99.99,,,-99.99,,2013-02-01 21:12:00,
2013-02-01 16:22:00,-999.0,-99.9,30.09,NW,316,31.0,38.0,-999,-99.99,,,-99.99,,2013-02-01 21:22:00,
2013-02-01 16:32:00,-999.0,-99.9,30.09,NW,318,28.0,36.0,-999,-99.99,,,-99.99,,2013-02-01 21:32:00,
2013-02-01 16:42:00,-999.0,-99.9,30.10,NW,324,26.0,32.0,-999,-99.99,,,-99.99,,2013-02-01 21:42:00,
2013-02-01 16:53:00,-999.0,-99.9,30.11,NW,321,25.0,33.0,-999,-99.99,,,-99.99,,2013-02-01 21:53:00,
2013-02-01 17:03:00,29.0,-99.9,30.11,NW,318,30.0,37.0,-999,-99.99,,,-99.99,,2013-02-01 22:03:00,
2013-02-01 17:11:00,-999.0,-99.9,30.12,NW,318,26.0,35.0,-999,-99.99,,,-99.99,,2013-02-01 22:11:00,
2013-02-01 17:22:00,28.0,-99.9,30.12,NW,308,29.0,36.0,-999,-99.99,,,-99.99,,2013-02-01 22:22:00,
2013-02-01 17:32:00,-999.0,-99.9,30.13,NW,313,28.0,37.0,-999,-99.99,,,-99.99,,2013-02-01 22:32:00,
2013-02-01 17:42:00,-999.0,-99.9,30.14,NW,315,28.0,37.0,-999,-99.99,,,-99.99,,2013-02-01 22:42:00,
2013-02-01 17:52:00,-999.0,-99.9,30.15,NW,320,28.0,36.0,-999,-99.99,,,-99.99,,2013-02-01 22:52:00,
2013-02-01 18:02:00,28.0,-99.9,30.15,NW,315,27.0,35.0,-999,-99.99,,,-99.99,,2013-02-01 23:02:00,
2013-02-01 18:11:00,-999.0,-99.9,30.16,NW,316,24.0,35.0,-999,-99.99,,,-99.99,,2013-02-01 23:11:00,
2013-02-01 18:22:00,-999.0,-99.9,30.17,NW,307,25.0,37.0,-999,-99.99,,,-99.99,,2013-02-01 23:22:00,
2013-02-01 18:32:00,28.0,-99.9,30.17,NW,319,19.0,32.0,-999,-99.99,,,-99.99,,2013-02-01 23:32:00,
2013-02-01 18:42:00,-999.0,-99.9,30.18,NW,308,26.0,33.0,-999,-99.99,,,-99.99,,2013-02-01 23:42:00,
2013-02-01 18:52:00,28.0,-99.9,30.18,NW,313,27.0,33.0,-999,-99.99,,,-99.99,,2013-02-01 23:52:00,
2013-02-01 19:02:00,-999.0,-99.9,30.19,NW,313,24.0,31.0,-999,-99.99,,,-99.99,,2013-02-02 00:02:00,
2013-02-01 19:11:00,-999.0,-99.9,30.20,NW,310,31.0,39.0,-999,-99.99,,,-99.99,,2013-02-02 00:11:00,
2013-02-01 19:22:00,-999.0,-99.9,30.21,NW,309,31.0,37.0,-999,-99.99,,,-99.99,,2013-02-02 00:22:00,
2013-02-01 19:32:00,27.0,-99.9,30.21,NW,313,31.0,38.0,-999,-99.99,,,-99.99,,2013-02-02 00:32:00,
2013-02-01 19:42:00,-999.0,-99.9,30.22,NW,320,28.0,35.0,-999,-99.99,,,-99.99,,2013-02-02 00:42:00,
2013-02-01 19:52:00,-999.0,-99.9,30.22,NW,310,29.0,36.0,-999,-99.99,,,-99.99,,2013-02-02 00:52:00,
2013-02-01 20:03:00,27.0,-99.9,30.23,NW,316,28.0,34.0,-999,-99.99,,,-99.99,,2013-02-02 01:03:00,
2013-02-01 20:11:00,-999.0,-99.9,30.23,NW,322,28.0,36.0,-999,-99.99,,,-99.99,,2013-02-02 01:11:00,
2013-02-01 20:22:00,-999.0,-99.9,30.24,NW,314,30.0,37.0,-999,-99.99,,,-99.99,,2013-02-02 01:22:00,
2013-02-01 20:32:00,-999.0,-99.9,30.24,NW,318,29.0,36.0,-999,-99.99,,,-99.99,,2013-02-02 01:32:00,
2013-02-01 20:42:00,-999.0,-99.9,30.24,NW,311,26.0,33.0,-999,-99.99,,,-99.99,,2013-02-02 01:42:00,
2013-02-01 20:52:00,-999.0,-99.9,30.25,NW,317,27.0,32.0,-999,-99.99,,,-99.99,,2013-02-02 01:52:00,
2013-02-01 21:01:00,26.0,-99.9,30.25,NW,319,26.0,37.0,-999,-99.99,,,-99.99,,2013-02-02 02:01:00,
2013-02-01 21:11:00,-999.0,-99.9,30.25,NW,313,27.0,34.0,-999,-99.99,,,-99.99,,2013-02-02 02:11:00,
2013-02-01 21:22:00,-999.0,-99.9,30.26,NW,311,24.0,33.0,-999,-99.99,,,-99.99,,2013-02-02 02:22:00,
2013-02-01 21:32:00,26.0,-99.9,30.26,NW,309,14.0,31.0,-999,-99.99,,,-99.99,,2013-02-02 02:32:00,
2013-02-01 21:42:00,-999.0,-99.9,30.27,NW,320,21.0,34.0,-999,-99.99,,,-99.99,,2013-02-02 02:42:00,
2013-02-01 21:52:00,26.0,-99.9,30.27,NW,315,23.0,31.0,-999,-99.99,,,-99.99,,2013-02-02 02:52:00,
2013-02-01 22:02:00,-999.0,-99.9,30.27,NW,315,22.0,33.0,-999,-99.99,,,-99.99,,2013-02-02 03:02:00,
2013-02-01 22:11:00,-999.0,-99.9,30.28,NW,317,20.0,34.0,-999,-99.99,,,-99.99,,2013-02-02 03:11:00,
2013-02-01 22:22:00,-999.0,-99.9,30.28,NW,318,19.0,31.0,-999,-99.99,,,-99.99,,2013-02-02 03:22:00,
2013-02-01 22:32:00,25.0,-99.9,30.29,NW,317,22.0,33.0,-999,-99.99,,,-99.99,,2013-02-02 03:32:00,
2013-02-01 22:42:00,-999.0,-99.9,30.29,NW,319,19.0,30.0,-999,-99.99,,,-99.99,,2013-02-02 03:42:00,
2013-02-01 22:52:00,25.0,-99.9,30.29,NW,323,17.0,25.0,-999,-99.99,,,-99.99,,2013-02-02 03:52:00,
2013-02-01 23:02:00,-999.0,-99.9,30.30,NW,314,20.0,32.0,-999,-99.99,,,-99.99,,2013-02-02 04:02:00,
2013-02-01 23:11:00,-999.0,-99.9,30.30,NW,316,18.0,32.0,-999,-99.99,,,-99.99,,2013-02-02 04:11:00,
2013-02-01 23:22:00,-999.0,-99.9,30.31,NW,312,19.0,29.0,-999,-99.99,,,-99.99,,2013-02-02 04:22:00,
2013-02-01 23:33:00,-999.0,-99.9,30.31,NW,318,16.0,27.0,-999,-99.99,,,-99.99,,2013-02-02 04:33:00,
2013-02-01 23:42:00,-999.0,-99.9,30.31,NW,316,19.0,30.0,-999,-99.99,,,-99.99,,2013-02-02 04:42:00,
2013-02-01 23:52:00,-999.0,-99.9,30.31,NW,319,16.0,28.0,-999,-99.99,,,-99.99,,2013-02-02 04:52:00,